Location: Krasnoyarskiy Pitomnik
(51.1333°N, 71.6167°E)
Time: 18:16:53
(UTC+00:00)

Envisat - Pass Details

Date: 01 March 2024
Orbit: 762 x 764 km, 98.3° (Epoch: 13 April)

Event Time Altitude Azimuth Distance (km) Brightness Sun altitude
Rises 00:18:42 0° 6° (N) 3,244 6.4 -16.3°
Reaches altitude 10° 00:21:27 10° 351° (N) 2,313 5.5 -15.9°
Maximum altitude 00:25:16 22° 303° (WNW) 1,633 4.3 -15.3°
Enters shadow 00:26:11 21° 287° (WNW) 1,677 4.2 -15.2°
